e   1.0002754      Incl.  134.79313     -0.30647057     -0.57166201

From 244 observations 2006 Nov. 13-2007 June 19, mean residual 0".61.

   (1/a)org.= +0.000004, (1/a)fut.= +0.000034 (+/-0.000007), Q= 7.

 

Date/        TT  R.A.(2000) Decl.     Delta   r     Daily motion  Mag.  Moon Age

              h    h  m       。  ,                      ,  / PA 。  m1      。

2007 June 20 12  22 37.88  +54 38.3   1.020  1.327    72.6 / 325   9.8  116  .30

          21 12  22 33.01  +55 37.8   0.992  1.317    77.0 / 324   9.7  120  .40

          22 12  22 27.52  +56 39.6   0.963  1.307    81.7 / 322   9.6  122  .49

          23 12  22 21.31  +57 43.9   0.935  1.297    86.7 / 321   9.5  123  .59

          24 12  22 14.25  +58 50.4   0.908  1.287    92.2 / 319   9.4  122  .68

          25 12  22 06.19  +59 59.0   0.880  1.277    98.0 / 317   9.3  120  .77

          26 12  21 56.93  +61 09.3   0.854  1.268   104.3 / 315   9.2  116  .84

          27 12  21 46.26  +62 21.0   0.828  1.258   111.0 / 312   9.1  112  .90

          28 12  21 33.90  +63 33.1   0.803  1.249   118.1 / 309   9.0  107  .95

          29 12  21 19.53  +64 44.7   0.778  1.239   125.7 / 305   8.9  103  .99

          30 12  21 02.79  +65 54.1   0.754  1.230   133.7 / 301   8.8   98 1.00

     July  1 12  20 43.31  +66 59.2   0.732  1.221   142.1 / 297   8.7   94  .99

           2 12  20 20.72  +67 57.2   0.710  1.212   150.8 / 291   8.6   90  .96

           3 12  19 54.83  +68 44.4   0.689  1.203   159.8 / 285   8.5   88  .91

           4 12  19 25.69  +69 16.5   0.670  1.194   168.9 / 278   8.4   86  .83

           5 12  18 53.79  +69 29.1   0.652  1.186   177.9 / 270   8.3   86  .74

           6 12  18 20.13  +69 17.9   0.636  1.177   186.8 / 262   8.2   87  .64

           7 12  17 46.09  +68 40.0   0.621  1.169   195.2 / 254   8.1   88  .52

           8 12  17 13.18  +67 34.3   0.608  1.161   203.0 / 246   8.1   90  .41

           9 12  16 42.59  +66 01.5   0.598  1.153   209.8 / 239   8.0   91  .30

          10 12  16 15.06  +64 04.3   0.589  1.145   215.4 / 233   7.9   92  .20

          11 12  15 50.83  +61 46.1   0.582  1.138   219.6 / 227   7.9   91  .12

          12 12  15 29.82  +59 10.8   0.577  1.130   222.1 / 223   7.8   89  .05

          13 12  15 11.70  +56 22.3   0.575  1.123   222.9 / 219   7.8   86  .01

          14 12  14 56.12  +53 24.4   0.575  1.116   222.0 / 215   7.8   81  .00

          15 12  14 42.70  +50 20.4   0.577  1.109   219.3 / 213   7.8   75  .01

          16 12  14 31.09  +47 13.4   0.582  1.103   215.1 / 210   7.7   69  .05

          17 12  14 21.00  +44 06.1   0.589  1.096   209.4 / 208   7.7   62  .10

          18 12  14 12.19  +41 00.7   0.598  1.090   202.6 / 207   7.8   56  .17

          19 12  14 04.45  +37 59.0   0.608  1.084   194.8 / 206   7.8   50  .25

          20 12  13 57.60  +35 02.5   0.621  1.078   186.4 / 204   7.8   46  .33

          21 12  13 51.52  +32 12.2   0.636  1.073   177.7 / 204   7.8   44  .43

          22 12  13 46.08  +29 28.9   0.652  1.067   168.7 / 203   7.9   45  .52

          23 12  13 41.20  +26 53.1   0.669  1.062   159.7 / 202   7.9   49  .62

          24 12  13 36.79  +24 24.9   0.688  1.058   150.8 / 202   7.9   55  .71

          25 12  13 32.79  +22 04.5   0.708  1.053   142.3 / 201   8.0   63  .79

          26 12  13 29.15  +19 51.7   0.730  1.049   134.0 / 201   8.0   73  .87

          27 12  13 25.82  +17 46.3   0.752  1.044   126.2 / 200   8.1   83  .93

          28 12  13 22.76  +15 48.1   0.775  1.041   118.7 / 200   8.1   94  .97

          29 12  13 19.94  +13 56.6   0.799  1.037   111.7 / 200   8.2  106 1.00

          30 12  13 17.33  +12 11.6   0.824  1.034   105.2 / 200   8.2  119 1.00

          31 12  13 14.91  +10 32.6   0.849  1.031    99.1 / 200   8.3  131  .97

     Aug.  1 12  13 12.65  +08 59.4   0.874  1.028    93.4 / 200   8.3  144  .92

NAKANO

         **** Don't distribute anyone except personal use only ****

                (C) Copyright 2007 OAA/ComputingSection

write mail from CFAD0::NAKANO on 2007-06-21 02:36:22(JST).

 



    C/2006 VZ13 (LINEAR)

Epoch 2007 Aug. 8.0 TT = JDT 2454320.5  

T 2007 Aug. 10.90336 TT                                 Nakano

q   1.0152931            (2000.0)            P               Q

z  -0.0002103      Peri.  174.11701     -0.33816180     -0.68203527

 +/-0.0000097      Node    66.02817     -0.88978169     +0.45611542

e   1.0002135      Incl.  134.79349     -0.30648840     -0.57165253

From 153 observations 2006 Nov. 13-2007 May 28, mean residual 0".53.

   (1/a)org.= +0.000065, (1/a)fut.= +0.000095 (+/-0.000010), Q= 7.



NAKANO

         **** Don't distribute anyone except personal use only ****

                (C) Copyright 2007 OAA/ComputingSection

write mail from CFAD0::NAKANO on 2007-06-06 06:36:40(JST).

 

    C/2006 VZ13 (LINEAR)

Epoch 2007 Aug. 8.0 TT = JDT 2454320.5  

T 2007 Aug. 10.90000 TT                                 Nakano

q   1.0152609            (2000.0)            P               Q

z  -0.0002168      Peri.  174.11748     -0.33817332     -0.68202950

 +/-0.0000138      Node    66.02781     -0.88977606     +0.45612657

e   1.0002201      Incl.  134.79333     -0.30649203     -0.57165051

From 109 observations 2006 Nov. 13-2007 Apr. 27, mean residual 0".46.

   (1/a)org.= +0.000058, (1/a)fut.= +0.000089 (+/-0.000014), Q= 6.



NAKANO

         **** Don't distribute anyone except personal use only ****

                (C) Copyright 2007 OAA/ComputingSection

write mail from CFAD0::NAKANO on 2007-05-04 04:01:44(JST).

◎C/2006 VZ13の軌道と予報位置



 上尾の門田健一氏から,4月14日の観測が報告されました.氏のCCD全光度は,

15.8等でした.このまま,順調に成長すれば,近日点通過時には,8等級まで

明るくなります(ただし,観測条件が余り良くない)が,そこまでは,増光し

ない気がします.



    C/2006 VZ13 (LINEAR)

Epoch 2007 Aug. 8.0 TT = JDT 2454320.5  

T 2007 Aug. 10.89874 TT                                 Nakano

q   1.0152422            (2000.0)            P               Q

z  -0.0002133      Peri.  174.11770     -0.33818608     -0.68202316

 +/-0.0000137      Node    66.02721     -0.88977107     +0.45613662

e   1.0002166      Incl.  134.79306     -0.30649245     -0.57165007

From 97 observations 2006 Nov. 13-2007 Apr. 14, mean residual 0".41.

   (1/a)org.= +0.000062, (1/a)fut.= +0.000092 (+/-0.000014), Q= 6.

 

Date/        TT  R.A.(2000) Decl.     Delta   r     Daily motion  Mag.  Moon Age

              h    h  m       。  ,                      ,  / PA 。  m1      。

2007 Apr. 15 18  23 11.44  +29 53.9   2.777  2.091    10.1 /  35  16.1   31  .05

          16 18  23 11.89  +30 02.2   2.757  2.079    10.2 /  34  16.1   32  .01

          17 18  23 12.32  +30 10.7   2.736  2.067    10.4 /  33  16.1   39  .00

          18 18  23 12.76  +30 19.4   2.716  2.055    10.5 /  32  16.0   49  .03

          19 18  23 13.18  +30 28.4   2.695  2.043    10.6 /  30  16.0   61  .08

          20 18  23 13.60  +30 37.5   2.674  2.031    10.7 /  29  15.9   73  .15

          21 18  23 14.00  +30 46.8   2.652  2.019    10.9 /  28  15.9   85  .24

          22 18  23 14.40  +30 56.4   2.631  2.007    11.0 /  27  15.9   96  .34

          23 18  23 14.79  +31 06.2   2.609  1.995    11.1 /  26  15.8  107  .45

          24 18  23 15.17  +31 16.2   2.587  1.983    11.3 /  25  15.8  118  .55

          25 18  23 15.54  +31 26.4   2.564  1.971    11.4 /  24  15.8  127  .65

          26 18  23 15.91  +31 36.9   2.541  1.959    11.6 /  23  15.7  136  .74

          27 18  23 16.26  +31 47.6   2.518  1.947    11.8 /  21  15.7  143  .82

          28 18  23 16.59  +31 58.5   2.495  1.934    12.0 /  20  15.6  147  .88

          29 18  23 16.92  +32 09.8   2.472  1.922    12.1 /  19  15.6  148  .94

          30 18  23 17.24  +32 21.2   2.448  1.910    12.3 /  18  15.6  146  .97

     May   1 18  23 17.54  +32 33.0   2.424  1.898    12.6 /  17  15.5  140  .99

           2 18  23 17.83  +32 45.0   2.400  1.886    12.8 /  16  15.5  132 1.00

           3 18  23 18.11  +32 57.3   2.376  1.874    13.0 /  15  15.4  124  .98

           4 18  23 18.37  +33 09.9   2.351  1.862    13.3 /  14  15.4  114  .95

           5 18  23 18.62  +33 22.7   2.326  1.850    13.5 /  12  15.3  104  .90

           6 18  23 18.85  +33 35.9   2.301  1.838    13.8 /  11  15.3   94  .83

           7 18  23 19.07  +33 49.5   2.276  1.826    14.1 /  10  15.2   83  .75

           8 18  23 19.26  +34 03.3   2.250  1.814    14.4 /   9  15.2   73  .65

           9 18  23 19.45  +34 17.5   2.224  1.802    14.7 /   8  15.2   62  .55

          10 18  23 19.61  +34 32.1   2.198  1.790    15.0 /   7  15.1   52  .44

          11 18  23 19.75  +34 47.0   2.172  1.778    15.4 /   6  15.1   43  .33

          12 18  23 19.88  +35 02.3   2.146  1.766    15.7 /   5  15.0   36  .23

          13 18  23 19.98  +35 17.9   2.119  1.754    16.1 /   3  15.0   34  .13

          14 18  23 20.05  +35 34.0   2.092  1.742    16.5 /   2  14.9   36  .06

          15 18  23 20.11  +35 50.6   2.065  1.731    17.0 /   1  14.9   44  .02

          16 18  23 20.14  +36 07.5   2.038  1.719    17.4 /   0  14.8   53  .00

          17 18  23 20.14  +36 24.9   2.011  1.707    17.9 / 359  14.8   64  .01

          18 18  23 20.11  +36 42.8   1.983  1.695    18.4 / 358  14.7   76  .06

          19 18  23 20.06  +37 01.2   1.955  1.683    18.9 / 357  14.7   87  .12

          20 18  23 19.97  +37 20.1   1.927  1.671    19.5 / 356  14.6   98  .20

          21 18  23 19.85  +37 39.5   1.899  1.660    20.1 / 355  14.5  109  .29

          22 18  23 19.70  +37 59.5   1.871  1.648    20.7 / 354  14.5  118  .39

          23 18  23 19.50  +38 20.1   1.842  1.636    21.4 / 353  14.4  127  .49

          24 18  23 19.27  +38 41.3   1.814  1.624    22.1 / 352  14.4  134  .58

          25 18  23 19.00  +39 03.1   1.785  1.613    22.8 / 351  14.3  140  .68

          26 18  23 18.68  +39 25.6   1.756  1.601    23.6 / 350  14.3  142  .76

          27 18  23 18.31  +39 48.8   1.727  1.589    24.4 / 349  14.2  142  .84

